QPF
0.07 0.05 0.05 0.05 0.04 0.05 0.05 0.05 0.06 0.05 0.03 0.02 0.02 0.02 0.03 0.03 0.03 0.04 0.05 0.07 0.07 0.07 0.08 0.08 0.08 0.07 0.07 0.09 0.08 0.04 0.02 0.02 0.02 0.02 0.02 0.02 0.01 0.01 0.01 0.01 0.01 0.01 0.00
0.06 0.07 0.06 0.06 0.05 0.06 0.05 0.04 0.05 0.05 0.05 0.03 0.04 0.04 0.04 0.04 0.03 0.04 0.05 0.08 0.08 0.08 0.07 0.09 0.09 0.08 0.08 0.09 0.08 0.06 0.04 0.04 0.03 0.02 0.02 0.01 0.01 0.02 0.02 0.01 0.01 0.01 0.00
0.06 0.05 0.04 0.05 0.05 0.04 0.04 0.04 0.04 0.04 0.04 0.04 0.06 0.06 0.07 0.07 0.05 0.05 0.06 0.08 0.08 0.07 0.07 0.08 0.09 0.09 0.10 0.12 0.10 0.08 0.07 0.05 0.04 0.02 0.02 0.02 0.01 0.01 0.01 0.01 0.01 0.01 0.01
0.06 0.03 0.02 0.03 0.03 0.02 0.02 0.04 0.04 0.04 0.05 0.07 0.09 0.08 0.09 0.08 0.07 0.06 0.08 0.11 0.13 0.08 0.07 0.06 0.06 0.07 0.08 0.11 0.11 0.11 0.10 0.08 0.04 0.03 0.02 0.02 0.01 0.01 0.01 0.01 0.01 0.01 0.01
0.03 0.03 0.02 0.02 0.01 0.01 0.02 0.01 0.02 0.04 0.03 0.04 0.04 0.07 0.07 0.07 0.07 0.05 0.06 0.07 0.10 0.10 0.09 0.05 0.04 0.04 0.05 0.08 0.09 0.11 0.10 0.08 0.07 0.05 0.03 0.02 0.02 0.01 0.01 0.01 0.01 0.01 0.01
0.02 0.02 0.02 0.01 0.01 0.01 0.02 0.03 0.03 0.02 0.02 0.02 0.02 0.03 0.03 0.04 0.06 0.07 0.05 0.05 0.06 0.05 0.06 0.05 0.05 0.03 0.03 0.05 0.07 0.09 0.09 0.08 0.07 0.06 0.05 0.04 0.05 0.03 0.01 0.01 0.00 0.00 0.01
0.01 0.02 0.01 0.01 0.01 0.01 0.01 0.02 0.02 0.02 0.01 0.01 0.02 0.03 0.03 0.03 0.04 0.04 0.03 0.03 0.03 0.03 0.05 0.05 0.05 0.05 0.04 0.03 0.04 0.06 0.08 0.09 0.10 0.08 0.06 0.05 0.05 0.04 0.02 0.01 0.01 0.01 0.01
0.01 0.01 0.01 0.01 0.01 0.01 0.01 0.00 0.01 0.01 0.01 0.01 0.02 0.03 0.03 0.04 0.03 0.01 0.01 0.01 0.02 0.02 0.02 0.02 0.04 0.05 0.03 0.05 0.03 0.02 0.05 0.06 0.08 0.09 0.07 0.06 0.06 0.05 0.04 0.03 0.02 0.01 0.01
0.01 0.01 0.01 0.01 0.01 0.00 0.00 0.00 0.00 0.00 0.00 0.00 0.00 0.01 0.02 0.03 0.03 0.02 0.01 0.01 0.01 0.01 0.01 0.02 0.02 0.03 0.03 0.04 0.05 0.03 0.02 0.03 0.05 0.06 0.07 0.06 0.05 0.04 0.04 0.04 0.04 0.03 0.02
0.00 0.00 0.00 0.01 0.00 0.00 0.00 0.00 0.00 0.00 0.00 0.00 0.00 0.00 0.01 0.01 0.02 0.02 0.01 0.01 0.01 0.01 0.01 0.01 0.02 0.02 0.02 0.03 0.03 0.01 0.00 0.01 0.02 0.04 0.06 0.06 0.06 0.05 0.04 0.04 0.06 0.06 0.05
0.00 0.00 0.00 0.00 0.00 0.00 0.00 0.00 0.00 0.00 0.00 0.00 0.00 0.00 0.00 0.00 0.00 0.01 0.01 0.01 0.01 0.01 0.00 0.01 0.01 0.01 0.01 0.01 0.03 0.01 0.00 0.00 0.01 0.02 0.03 0.05 0.05 0.04 0.04 0.05 0.06 0.07 0.07
0.00 0.00 0.00 0.00 0.00 0.00 0.00 0.00 0.00 0.00 0.00 0.00 0.00 0.00 0.00 0.00 0.00 0.00 0.00 0.00 0.01 0.00 0.00 0.00 0.00 0.00 0.00 0.00 0.00 0.00 0.00 0.00 0.00 0.00 0.01 0.01 0.02 0.03 0.04 0.05 0.07 0.08 0.08
0.01 0.01 0.00 0.00 0.00 0.00 0.00 0.00 0.00 0.00 0.00 0.00 0.00 0.00 0.00 0.00 0.00 0.00 0.00 0.00 0.00 0.00 0.00 0.00 0.00 0.00 0.00 0.00 0.00 0.00 0.00 0.00 0.00 0.00 0.00 0.00 0.00 0.01 0.01 0.02 0.04 0.05 0.07
0.01 0.01 0.00 0.00 0.00 0.00 0.00 0.00 0.00 0.00 0.00 0.00 0.00 0.00 0.00 0.00 0.00 0.00 0.00 0.00 0.00 0.00 0.00 0.00 0.00 0.00 0.00 0.00 0.00 0.00 0.00 0.00 0.00 0.00 0.00 0.00 0.00 0.00 0.00 0.01 0.01 0.01 0.02
0.01 0.02 0.01 0.01 0.01 0.00 0.00 0.00 0.00 0.00 0.00 0.00 0.00 0.00 0.00 0.00 0.00 0.00 0.00 0.00 0.00 0.00 0.00 0.00 0.00 0.00 0.00 0.00 0.00 0.00 0.00 0.00 0.00 0.00 0.00 0.00 0.00 0.00 0.01 0.00 0.00 0.00 0.00
0.03 0.04 0.03 0.02 0.01 0.01 0.01 0.01 0.00 0.00 0.00 0.00 0.00 0.00 0.00 0.00 0.00 0.00 0.00 0.00 0.00 0.00 0.00 0.00 0.00 0.00 0.00 0.00 0.00 0.00 0.00 0.00 0.00 0.00 0.00 0.00 0.00 0.00 0.00 0.00 0.00 0.00 0.00
0.04 0.05 0.04 0.03 0.02 0.02 0.02 0.02 0.01 0.01 0.01 0.01 0.01 0.01 0.01 0.01 0.01 0.01 0.00 0.00 0.00 0.00 0.00 0.00 0.00 0.00 0.00 0.00 0.00 0.00 0.00 0.00 0.00 0.00 0.00 0.00 0.00 0.00 0.00 0.00 0.00 0.00 0.00
0.06 0.07 0.06 0.04 0.03 0.02 0.02 0.02 0.02 0.01 0.01 0.02 0.02 0.02 0.02 0.02 0.02 0.01 0.01 0.01 0.01 0.01 0.01 0.00 0.00 0.00 0.01 0.00 0.00 0.00 0.00 0.00 0.00 0.00 0.00 0.00 0.00 0.00 0.00 0.00 0.00 0.00 0.00
0.05 0.05 0.05 0.05 0.04 0.03 0.03 0.03 0.03 0.03 0.02 0.02 0.03 0.03 0.04 0.03 0.02 0.03 0.02 0.02 0.02 0.01 0.02 0.01 0.01 0.01 0.01 0.01 0.01 0.01 0.00 0.01 0.00 0.00 0.00 0.00 0.00 0.00 0.00 0.00 0.00 0.00 0.00
0.05 0.05 0.05 0.05 0.04 0.04 0.03 0.04 0.04 0.04 0.04 0.04 0.04 0.03 0.03 0.03 0.03 0.03 0.03 0.03 0.03 0.03 0.03 0.03 0.02 0.02 0.02 0.02 0.02 0.01 0.01 0.02 0.01 0.00 0.00 0.00 0.00 0.00 0.00 0.00 0.00 0.00 0.00
0.05 0.05 0.05 0.05 0.04 0.03 0.03 0.04 0.05 0.05 0.05 0.05 0.04 0.03 0.03 0.03 0.03 0.03 0.03 0.04 0.04 0.05 0.05 0.05 0.04 0.03 0.03 0.04 0.04 0.03 0.02 0.01 0.01 0.01 0.01 0.01 0.01 0.01 0.01 0.01 0.01 0.00 0.00
0.05 0.04 0.03 0.03 0.03 0.02 0.03 0.04 0.04 0.05 0.05 0.05 0.04 0.03 0.03 0.03 0.03 0.04 0.04 0.04 0.05 0.05 0.05 0.05 0.04 0.04 0.03 0.03 0.03 0.02 0.01 0.01 0.01 0.02 0.03 0.02 0.02 0.02 0.01 0.00 0.02 0.01 0.01
0.04 0.04 0.03 0.03 0.02 0.02 0.03 0.02 0.03 0.03 0.03 0.04 0.04 0.04 0.04 0.03 0.03 0.03 0.03 0.03 0.03 0.03 0.03 0.03 0.03 0.03 0.02 0.02 0.02 0.02 0.03 0.03 0.03 0.03 0.04 0.03 0.02 0.02 0.01 0.01 0.02 0.01 0.00
0.02 0.02 0.02 0.02 0.02 0.02 0.02 0.02 0.03 0.03 0.03 0.03 0.03 0.04 0.05 0.04 0.03 0.03 0.02 0.02 0.03 0.03 0.03 0.03 0.03 0.03 0.02 0.02 0.02 0.02 0.03 0.03 0.02 0.02 0.03 0.03 0.02 0.01 0.01 0.01 0.01 0.00 0.00
0.01 0.01 0.00 0.01 0.01 0.01 0.02 0.02 0.02 0.02 0.03 0.03 0.04 0.04 0.04 0.03 0.03 0.03 0.02 0.02 0.02 0.02 0.02 0.01 0.01 0.01 0.01 0.02 0.02 0.02 0.02 0.02 0.02 0.01 0.01 0.02 0.01 0.01 0.01 0.01 0.00 0.00 0.00
0.01 0.00 0.00 0.00 0.01 0.01 0.02 0.01 0.01 0.02 0.03 0.04 0.04 0.04 0.05 0.03 0.03 0.02 0.02 0.01 0.01 0.01 0.01 0.01 0.01 0.01 0.01 0.02 0.02 0.02 0.02 0.02 0.02 0.02 0.01 0.02 0.02 0.01 0.01 0.00 0.00 0.01 0.01
MSLP
1016.61 1016.70 1016.77 1016.85 1016.96 1017.10 1017.28 1017.48 1017.67 1017.82 1017.93 1017.99 1018.02 1018.05 1018.12 1018.24 1018.45 1018.75 1019.13 1019.55 1019.97 1020.35 1020.68 1020.93 1021.11 1021.23 1021.33 1021.42 1021.54 1021.68 1021.85 1022.04 1022.24 1022.44 1022.63 1022.80 1022.95 1023.10 1023.23 1023.35 1023.46 1023.55 1023.62
1016.63 1016.70 1016.75 1016.81 1016.89 1017.02 1017.18 1017.38 1017.59 1017.79 1017.95 1018.08 1018.18 1018.26 1018.34 1018.45 1018.62 1018.84 1019.13 1019.46 1019.81 1020.15 1020.45 1020.72 1020.93 1021.11 1021.25 1021.39 1021.53 1021.68 1021.84 1022.03 1022.22 1022.42 1022.62 1022.81 1022.99 1023.16 1023.32 1023.46 1023.57 1023.66 1023.72
1016.69 1016.75 1016.79 1016.83 1016.89 1016.99 1017.14 1017.33 1017.56 1017.79 1018.01 1018.20 1018.35 1018.47 1018.57 1018.67 1018.78 1018.92 1019.10 1019.32 1019.58 1019.85 1020.12 1020.38 1020.62 1020.84 1021.04 1021.23 1021.41 1021.58 1021.76 1021.94 1022.13 1022.33 1022.54 1022.74 1022.95 1023.14 1023.32 1023.48 1023.60 1023.70 1023.77
1016.74 1016.82 1016.85 1016.88 1016.93 1017.01 1017.14 1017.31 1017.54 1017.79 1018.04 1018.28 1018.48 1018.64 1018.75 1018.83 1018.89 1018.95 1019.03 1019.14 1019.29 1019.48 1019.71 1019.95 1020.21 1020.47 1020.72 1020.95 1021.17 1021.37 1021.57 1021.76 1021.95 1022.15 1022.36 1022.57 1022.79 1023.00 1023.20 1023.38 1023.52 1023.64 1023.72
1016.79 1016.87 1016.92 1016.95 1016.99 1017.05 1017.15 1017.31 1017.51 1017.76 1018.03 1018.29 1018.52 1018.71 1018.84 1018.91 1018.94 1018.93 1018.93 1018.94 1018.99 1019.10 1019.27 1019.48 1019.74 1020.02 1020.30 1020.58 1020.84 1021.07 1021.29 1021.49 1021.68 1021.88 1022.09 1022.30 1022.52 1022.74 1022.94 1023.13 1023.30 1023.43 1023.55
1016.81 1016.91 1016.98 1017.02 1017.06 1017.11 1017.19 1017.31 1017.48 1017.70 1017.96 1018.23 1018.48 1018.69 1018.83 1018.91 1018.92 1018.88 1018.81 1018.75 1018.72 1018.75 1018.86 1019.03 1019.27 1019.55 1019.85 1020.16 1020.44 1020.70 1020.94 1021.15 1021.34 1021.54 1021.73 1021.93 1022.14 1022.35 1022.56 1022.76 1022.93 1023.09 1023.23
1016.83 1016.95 1017.04 1017.11 1017.16 1017.21 1017.26 1017.35 1017.47 1017.65 1017.87 1018.12 1018.37 1018.59 1018.76 1018.85 1018.86 1018.81 1018.71 1018.60 1018.52 1018.49 1018.53 1018.66 1018.87 1019.13 1019.43 1019.74 1020.04 1020.31 1020.56 1020.77 1020.97 1021.15 1021.33 1021.52 1021.71 1021.90 1022.10 1022.29 1022.47 1022.64 1022.81
1016.85 1016.99 1017.12 1017.22 1017.30 1017.35 1017.40 1017.45 1017.53 1017.65 1017.83 1018.04 1018.27 1018.49 1018.67 1018.78 1018.82 1018.77 1018.67 1018.54 1018.42 1018.34 1018.33 1018.41 1018.57 1018.80 1019.07 1019.37 1019.67 1019.94 1020.19 1020.40 1020.59 1020.76 1020.93 1021.10 1021.27 1021.44 1021.61 1021.79 1021.96 1022.14 1022.31
1016.88 1017.04 1017.21 1017.37 1017.48 1017.56 1017.61 1017.63 1017.67 1017.74 1017.86 1018.02 1018.22 1018.43 1018.61 1018.75 1018.81 1018.79 1018.70 1018.57 1018.43 1018.32 1018.26 1018.29 1018.39 1018.57 1018.81 1019.07 1019.35 1019.61 1019.85 1020.06 1020.25 1020.42 1020.58 1020.73 1020.88 1021.03 1021.18 1021.33 1021.49 1021.65 1021.81
1016.91 1017.11 1017.32 1017.53 1017.70 1017.81 1017.87 1017.89 1017.89 1017.91 1017.98 1018.09 1018.25 1018.44 1018.62 1018.77 1018.85 1018.86 1018.79 1018.67 1018.53 1018.39 1018.30 1018.27 1018.32 1018.44 1018.62 1018.85 1019.09 1019.33 1019.56 1019.77 1019.96 1020.13 1020.29 1020.43 1020.57 1020.71 1020.83 1020.96 1021.09 1021.22 1021.36
1016.93 1017.14 1017.40 1017.66 1017.89 1018.05 1018.13 1018.16 1018.15 1018.13 1018.15 1018.22 1018.34 1018.50 1018.67 1018.82 1018.93 1018.96 1018.91 1018.81 1018.66 1018.51 1018.38 1018.30 1018.30 1018.36 1018.49 1018.67 1018.88 1019.10 1019.32 1019.52 1019.72 1019.89 1020.06 1020.21 1020.35 1020.47 1020.59 1020.69 1020.79 1020.89 1020.98
1016.88 1017.12 1017.42 1017.72 1018.00 1018.20 1018.32 1018.37 1018.36 1018.33 1018.31 1018.34 1018.43 1018.56 1018.72 1018.87 1018.98 1019.03 1019.00 1018.91 1018.76 1018.60 1018.45 1018.33 1018.28 1018.29 1018.37 1018.51 1018.68 1018.88 1019.08 1019.29 1019.49 1019.68 1019.85 1020.02 1020.16 1020.29 1020.40 1020.49 1020.57 1020.62 1020.67
1016.76 1017.01 1017.32 1017.66 1017.97 1018.21 1018.37 1018.44 1018.44 1018.40 1018.38 1018.39 1018.45 1018.56 1018.70 1018.84 1018.96 1019.01 1019.00 1018.92 1018.78 1018.61 1018.45 1018.31 1018.23 1018.20 1018.24 1018.34 1018.48 1018.66 1018.85 1019.05 1019.25 1019.44 1019.63 1019.81 1019.97 1020.11 1020.22 1020.30 1020.36 1020.38 1020.39
1016.54 1016.78 1017.10 1017.45 1017.77 1018.04 1018.22 1018.31 1018.33 1018.31 1018.29 1018.29 1018.34 1018.44 1018.57 1018.71 1018.83 1018.89 1018.88 1018.81 1018.68 1018.52 1018.36 1018.21 1018.12 1018.07 1018.09 1018.16 1018.28 1018.43 1018.60 1018.78 1018.97 1019.16 1019.35 1019.53 1019.69 1019.84 1019.96 1020.04 1020.09 1020.10 1020.08
1016.26 1016.48 1016.77 1017.10 1017.42 1017.69 1017.88 1017.99 1018.03 1018.03 1018.02 1018.04 1018.10 1018.20 1018.33 1018.47 1018.59 1018.65 1018.66 1018.60 1018.49 1018.34 1018.19 1018.06 1017.96 1017.92 1017.93 1017.98 1018.07 1018.19 1018.33 1018.48 1018.64 1018.80 1018.97 1019.13 1019.29 1019.43 1019.55 1019.64 1019.69 1019.70 1019.67
1015.95 1016.14 1016.40 1016.69 1016.98 1017.23 1017.41 1017.52 1017.58 1017.60 1017.62 1017.66 1017.74 1017.86 1018.01 1018.15 1018.28 1018.35 1018.37 1018.33 1018.24 1018.12 1017.99 1017.88 1017.80 1017.77 1017.78 1017.83 1017.90 1017.99 1018.08 1018.18 1018.28 1018.39 1018.50 1018.62 1018.75 1018.87 1018.98 1019.07 1019.12 1019.14 1019.12
1015.68 1015.84 1016.05 1016.30 1016.54 1016.75 1016.91 1017.01 1017.07 1017.12 1017.17 1017.24 1017.36 1017.50 1017.67 1017.84 1017.98 1018.07 1018.10 1018.07 1018.01 1017.91 1017.82 1017.74 1017.69 1017.68 1017.71 1017.75 1017.80 1017.85 1017.88 1017.91 1017.93 1017.95 1017.98 1018.02 1018.08 1018.16 1018.24 1018.32 1018.38 1018.41 1018.42
1015.51 1015.65 1015.82 1016.02 1016.21 1016.37 1016.49 1016.58 1016.64 1016.70 1016.78 1016.89 1017.04 1017.22 1017.42 1017.61 1017.77 1017.87 1017.92 1017.91 1017.87 1017.80 1017.73 1017.69 1017.67 1017.69 1017.72 1017.76 1017.79 1017.79 1017.76 1017.70 1017.62 1017.53 1017.45 1017.39 1017.36 1017.37 1017.40 1017.45 1017.50 1017.55 1017.58
1015.49 1015.61 1015.76 1015.91 1016.05 1016.17 1016.25 1016.32 1016.37 1016.44 1016.54 1016.69 1016.87 1017.09 1017.32 1017.53 1017.71 1017.83 1017.89 1017.89 1017.86 1017.81 1017.77 1017.75 1017.76 1017.79 1017.83 1017.86 1017.86 1017.82 1017.73 1017.58 1017.39 1017.19 1016.98 1016.80 1016.66 1016.57 1016.53 1016.53 1016.57 1016.62 1016.67
1015.62 1015.75 1015.88 1016.01 1016.11 1016.19 1016.24 1016.28 1016.33 1016.40 1016.52 1016.69 1016.90 1017.15 1017.40 1017.64 1017.83 1017.96 1018.02 1018.03 1018.00 1017.95 1017.92 1017.91 1017.92 1017.96 1018.00 1018.03 1018.01 1017.93 1017.77 1017.55 1017.26 1016.94 1016.61 1016.31 1016.05 1015.85 1015.72 1015.66 1015.65 1015.68 1015.73
1015.89 1016.04 1016.18 1016.29 1016.38 1016.43 1016.46 1016.48 1016.51 1016.58 1016.71 1016.90 1017.13 1017.40 1017.67 1017.91 1018.10 1018.23 1018.29 1018.28 1018.24 1018.18 1018.14 1018.11 1018.12 1018.15 1018.19 1018.20 1018.16 1018.05 1017.85 1017.57 1017.21 1016.80 1016.37 1015.95 1015.58 1015.27 1015.04 1014.89 1014.82 1014.80 1014.82
1016.24 1016.43 1016.59 1016.72 1016.80 1016.84 1016.86 1016.86 1016.89 1016.96 1017.08 1017.27 1017.51 1017.78 1018.05 1018.30 1018.48 1018.60 1018.63 1018.61 1018.53 1018.44 1018.36 1018.31 1018.29 1018.30 1018.31 1018.31 1018.26 1018.13 1017.92 1017.60 1017.20 1016.72 1016.22 1015.72 1015.25 1014.84 1014.52 1014.27 1014.11 1014.02 1013.99
1016.64 1016.87 1017.07 1017.22 1017.32 1017.37 1017.38 1017.38 1017.39 1017.45 1017.57 1017.74 1017.97 1018.24 1018.50 1018.72 1018.89 1018.98 1018.98 1018.92 1018.80 1018.66 1018.53 1018.43 1018.36 1018.33 1018.32 1018.30 1018.24 1018.11 1017.89 1017.57 1017.16 1016.67 1016.13 1015.58 1015.04 1014.55 1014.14 1013.80 1013.54 1013.37 1013.25
1017.07 1017.35 1017.58 1017.77 1017.89 1017.95 1017.96 1017.96 1017.97 1018.01 1018.10 1018.26 1018.46 1018.69 1018.93 1019.12 1019.26 1019.31 1019.27 1019.16 1018.99 1018.79 1018.59 1018.42 1018.30 1018.22 1018.16 1018.12 1018.05 1017.93 1017.73 1017.44 1017.05 1016.57 1016.04 1015.47 1014.90 1014.36 1013.86 1013.44 1013.09 1012.82 1012.60
1017.52 1017.83 1018.11 1018.33 1018.48 1018.56 1018.58 1018.58 1018.57 1018.59 1018.65 1018.76 1018.92 1019.11 1019.30 1019.45 1019.54 1019.55 1019.46 1019.29 1019.07 1018.80 1018.53 1018.29 1018.10 1017.95 1017.85 1017.77 1017.69 1017.58 1017.40 1017.15 1016.81 1016.38 1015.88 1015.33 1014.75 1014.18 1013.64 1013.15 1012.72 1012.34 1012.03
1018.00 1018.35 1018.66 1018.91 1019.09 1019.19 1019.22 1019.21 1019.18 1019.17 1019.18 1019.24 1019.34 1019.47 1019.60 1019.69 1019.73 1019.69 1019.55 1019.33 1019.05 1018.72 1018.38 1018.06 1017.79 1017.57 1017.41 1017.29 1017.19 1017.08 1016.93 1016.73 1016.44 1016.07 1015.62 1015.11 1014.56 1013.98 1013.42 1012.88 1012.38 1011.92 1011.52
Thickness
5744 5743 5741 5739 5740 5739 5737 5734 5734 5732 5731 5730 5730 5729 5728 5727 5728 5727 5723 5718 5716 5715 5714 5713 5712 5711 5711 5711 5710 5710 5710 5710 5709 5709 5709 5708 5707 5707 5707 5706 5706 5705 5705
5742 5741 5740 5738 5738 5737 5737 5735 5734 5733 5733 5732 5730 5728 5727 5726 5724 5723 5723 5718 5716 5714 5713 5712 5711 5711 5710 5710 5709 5708 5708 5708 5707 5707 5707 5706 5706 5705 5705 5705 5704 5704 5703
5738 5739 5740 5738 5738 5736 5734 5734 5733 5733 5733 5733 5730 5729 5728 5725 5725 5723 5723 5721 5718 5715 5713 5712 5711 5710 5710 5709 5708 5708 5707 5707 5706 5705 5705 5704 5704 5704 5703 5703 5703 5702 5702
5736 5736 5739 5739 5736 5736 5736 5735 5735 5734 5734 5733 5731 5730 5728 5725 5724 5723 5723 5721 5719 5719 5715 5712 5711 5710 5710 5709 5708 5708 5707 5706 5705 5704 5703 5703 5702 5702 5702 5701 5701 5700 5700
5735 5736 5738 5737 5735 5737 5737 5737 5736 5735 5733 5732 5732 5729 5729 5727 5724 5724 5723 5722 5720 5719 5718 5714 5713 5711 5710 5709 5709 5708 5707 5706 5704 5703 5702 5701 5701 5700 5700 5700 5699 5699 5699
5734 5736 5736 5734 5736 5737 5735 5734 5732 5731 5732 5732 5734 5732 5730 5729 5727 5726 5725 5724 5722 5721 5720 5719 5716 5713 5712 5710 5709 5708 5707 5706 5704 5703 5702 5701 5700 5700 5699 5699 5698 5698 5697
5733 5733 5736 5733 5734 5735 5734 5734 5732 5731 5732 5732 5731 5729 5730 5732 5730 5728 5728 5727 5726 5723 5722 5720 5719 5718 5715 5712 5711 5709 5708 5706 5705 5703 5702 5701 5700 5699 5699 5698 5697 5697 5696
5731 5733 5733 5734 5733 5732 5731 5731 5730 5733 5733 5731 5730 5728 5724 5725 5727 5733 5730 5728 5728 5726 5725 5723 5721 5718 5718 5717 5714 5711 5709 5707 5706 5704 5702 5701 5700 5699 5698 5697 5697 5696 5696
5730 5730 5730 5732 5731 5734 5733 5730 5730 5729 5730 5731 5732 5730 5724 5722 5726 5730 5730 5730 5728 5727 5727 5725 5723 5721 5719 5718 5717 5713 5710 5708 5707 5705 5703 5702 5701 5700 5698 5697 5697 5696 5695
5728 5728 5728 5728 5729 5732 5730 5731 5731 5731 5729 5730 5730 5729 5729 5729 5725 5725 5728 5731 5729 5727 5728 5727 5726 5722 5720 5719 5716 5714 5711 5709 5707 5706 5705 5703 5702 5700 5699 5698 5697 5696 5695
5726 5727 5727 5727 5727 5729 5729 5728 5728 5729 5731 5730 5731 5730 5728 5727 5727 5724 5723 5726 5728 5729 5728 5726 5726 5724 5722 5720 5717 5716 5712 5709 5707 5706 5704 5703 5702 5701 5699 5698 5697 5696 5696
5726 5726 5726 5725 5726 5727 5726 5726 5726 5727 5728 5727 5729 5730 5728 5727 5727 5726 5723 5723 5725 5728 5727 5726 5725 5724 5722 5721 5718 5714 5711 5708 5707 5705 5704 5702 5701 5700 5699 5698 5697 5696 5696
5726 5724 5726 5724 5725 5724 5724 5724 5723 5725 5725 5723 5723 5726 5728 5728 5727 5726 5724 5724 5722 5725 5723 5724 5725 5723 5721 5719 5717 5712 5709 5707 5705 5704 5702 5701 5700 5699 5698 5697 5696 5695 5695
5727 5725 5723 5723 5722 5722 5722 5721 5723 5722 5721 5720 5722 5721 5722 5724 5724 5723 5722 5720 5717 5720 5722 5721 5724 5721 5719 5717 5714 5709 5708 5706 5703 5702 5700 5699 5698 5697 5696 5695 5694 5694 5694
5725 5723 5722 5722 5721 5720 5719 5718 5720 5718 5717 5718 5719 5718 5718 5721 5720 5720 5719 5717 5713 5710 5714 5717 5717 5718 5714 5712 5709 5707 5706 5704 5701 5699 5698 5697 5695 5694 5694 5693 5692 5692 5692
5722 5721 5721 5720 5719 5718 5716 5715 5716 5715 5713 5713 5713 5712 5712 5716 5716 5714 5714 5713 5712 5708 5707 5713 5711 5714 5709 5708 5705 5703 5702 5700 5698 5697 5695 5694 5693 5692 5691 5690 5690 5689 5689
5719 5718 5718 5717 5716 5715 5714 5712 5712 5711 5709 5709 5708 5708 5706 5707 5708 5710 5709 5707 5706 5704 5700 5704 5708 5706 5700 5698 5700 5698 5697 5697 5698 5695 5693 5691 5690 5689 5688 5687 5687 5687 5686
5716 5716 5715 5714 5713 5713 5711 5709 5708 5707 5705 5704 5703 5702 5701 5702 5699 5700 5700 5700 5699 5697 5694 5692 5696 5697 5694 5692 5691 5690 5692 5694 5693 5692 5689 5687 5686 5685 5685 5684 5684 5684 5683
5713 5712 5711 5709 5708 5708 5707 5705 5704 5703 5701 5700 5699 5697 5695 5694 5691 5691 5689 5690 5690 5690 5687 5685 5686 5688 5687 5686 5684 5683 5685 5684 5685 5687 5685 5683 5682 5681 5680 5680 5680 5680 5680
5707 5706 5705 5704 5703 5702 5701 5700 5699 5697 5695 5693 5691 5689 5687 5685 5683 5681 5680 5678 5678 5677 5676 5674 5675 5676 5675 5676 5673 5672 5674 5677 5676 5678 5678 5678 5676 5675 5675 5676 5676 5676 5675
5702 5700 5698 5697 5696 5694 5693 5692 5690 5689 5686 5684 5681 5679 5676 5673 5670 5669 5669 5668 5666 5665 5665 5663 5663 5663 5663 5660 5659 5660 5660 5662 5665 5667 5668 5670 5670 5671 5672 5671 5670 5670 5670
5694 5692 5690 5688 5686 5685 5680 5679 5678 5678 5675 5672 5669 5667 5664 5661 5657 5654 5652 5651 5650 5651 5652 5650 5651 5649 5648 5647 5645 5645 5646 5648 5650 5656 5653 5655 5657 5658 5661 5662 5665 5663 5662
5685 5682 5680 5677 5673 5669 5667 5666 5665 5665 5663 5659 5656 5653 5653 5649 5645 5643 5641 5638 5637 5634 5632 5633 5635 5634 5633 5633 5629 5629 5630 5630 5632 5636 5634 5639 5643 5645 5649 5651 5653 5652 5651
5675 5672 5669 5666 5662 5656 5654 5653 5653 5653 5650 5646 5643 5640 5637 5633 5629 5626 5627 5627 5625 5624 5621 5620 5619 5617 5617 5615 5613 5613 5613 5616 5619 5622 5622 5624 5631 5634 5638 5640 5641 5640 5640
5664 5661 5658 5654 5650 5644 5640 5640 5639 5641 5637 5633 5629 5625 5622 5619 5611 5609 5611 5613 5612 5611 5608 5605 5602 5600 5599 5597 5596 5597 5601 5604 5609 5613 5614 5612 5617 5619 5624 5627 5629 5629 5629
5653 5650 5644 5641 5637 5632 5626 5625 5625 5629 5625 5622 5617 5613 5605 5602 5596 5594 5597 5597 5597 5596 5593 5594 5591 5590 5588 5587 5584 5583 5585 5588 5592 5596 5599 5595 5597 5598 5604 5611 5613 5615 5615